Location: Allaines
(49.9632°N, 2.9458°E)
Time: 03:47:47
(UTC+00:00)

Cosmos 1943 - Pass Details

Date: 09 April 2020
Orbit: 832 x 851 km, 71.0° (Epoch: 04 June)

Event Time Altitude Azimuth Distance (km) Brightness Sun altitude
Rises 19:08:24 0° 212° (SSW) 3,384 6.5 -6.2°
Reaches altitude 10° 19:10:50 10° 214° (SW) 2,456 5.8 -6.6°
Maximum altitude 19:16:29 77° 301° (WNW) 874 3.5 -7.4°
Drops below altitude 10° 19:22:12 10° 27° (NNE) 2,484 5.6 -8.3°
Sets 19:24:41 0° 29° (NNE) 3,425 6.3 -8.7°
